Skagway, AK

2:50 PM AKST on December 03, 2016 (GMT -0900)
Skagway

Weather History for PAGY - February, 2013

Change the Weather History Date:

Thursday, February 28, 2013

  Actual Average Record
Temperature  
Mean Temperature 36 °F -  
Max Temperature 39 °F 34 °F 52 °F (1991)
Min Temperature 32 °F 25 °F 3 °F (1982)
Degree Days  
Heating Degree Days 30    
Moisture  
Dew Point 32 °F    
Average Humidity 84    
Maximum Humidity 100    
Minimum Humidity 68    
Precipitation  
Precipitation 0.17 in - - ()
Sea Level Pressure  
Sea Level Pressure 29.60 in    
Wind  
Wind Speed 7 mph (SSW)    
Max Wind Speed 32 mph    
Max Gust Speed 47 mph    
Visibility 8 miles    
Events Rain , Snow    
Averages and records for this station are not official NWS values.
T = Trace of Precipitation, MM = Missing Value Source: NWS Daily Summary

Daily Weather History Graph

Daily Weather History Graph

Search for Another Location

Airport or City:

Trip Planner

Search our weather history database for the weather conditions in past years. The results will help you decide how hot, cold, wet, or windy it might be!

Date:

Astronomy

Feb. 28, 2013 Rise Set
Actual Time 7:00 AM AKST 5:28 PM AKST
Civil Twilight 6:18 AM AKST 6:09 PM AKST
Nautical Twilight 5:31 AM AKST 6:57 PM AKST
Astronomical Twilight 4:43 AM AKST 7:45 PM AKST
Moon 10:11 PM AKST (2/28) 7:17 AM AKST (2/28)
Length of Visible Light 11h 50m
Length of Day
10h 28m
Waning Gibbous, 90% of the Moon is Illuminated
Feb 28
Waning Gibbous
Mar 4
Last Quarter
Mar 11
New
Mar 19
First Quarter
Mar 27
Full

Hourly Weather History & Observations

Time (AKST) Temp. Windchill Dew Point Humidity Pressure Visibility Wind Dir Wind Speed Gust Speed Precip Events Conditions
12:03 AM 32.0 °F - 30.2 °F 93% 29.65 in 1.5 mi Calm Calm - 0.01 in Snow Light Snow
12:12 AM 32.0 °F - 30.2 °F 93% 29.66 in 1.5 mi Calm Calm - 0.02 in Snow Light Snow
12:19 AM 32.0 °F - 30.2 °F 93% 29.66 in 1.0 mi Calm Calm - 0.03 in Snow Light Snow
12:30 AM 32.0 °F - 30.2 °F 93% 29.66 in 1.0 mi Calm Calm - 0.04 in Snow Light Snow
12:38 AM 32.0 °F - 32.0 °F 100% 29.67 in 0.8 mi Calm Calm - 0.04 in Snow Light Snow
12:53 AM 32.0 °F - 30.9 °F 96% 29.67 in 0.8 mi Calm Calm - 0.06 in Snow Light Snow
1:37 AM 32.0 °F 24.2 °F 30.2 °F 93% 29.68 in 1.2 mi NE 9.2 mph - 0.06 in Snow Light Snow
1:43 AM 32.0 °F 24.2 °F 30.2 °F 93% 29.67 in 2.0 mi ENE 9.2 mph - 0.06 in Snow Light Snow
1:53 AM 33.1 °F 27.7 °F 30.9 °F 92% 29.68 in 7.0 mi Variable 5.8 mph 23.0 mph 0.06 in Snow Light Snow
2:22 AM 39.2 °F 28.3 °F 33.8 °F 81% 29.67 in 10.0 mi SSW 25.3 mph 33.4 mph 0.01 in   Overcast
3:53 AM 39.0 °F 29.3 °F 30.9 °F 73% 29.70 in 10.0 mi SSW 19.6 mph 34.5 mph N/A   Overcast
4:53 AM 37.9 °F 29.6 °F 30.9 °F 76% 29.69 in 10.0 mi South 13.8 mph 21.9 mph N/A   Mostly Cloudy
5:53 AM 37.9 °F 29.6 °F 32.0 °F 79% 29.68 in 10.0 mi SSW 13.8 mph - N/A   Overcast
6:53 AM 35.1 °F - 30.9 °F 85% 29.68 in 10.0 mi Calm Calm - N/A   Overcast
7:07 AM 35.6 °F 32.8 °F 30.2 °F 81% 29.67 in 10.0 mi NNE 3.5 mph - N/A   Overcast
7:53 AM 34.0 °F 31.0 °F 30.9 °F 89% 29.65 in 10.0 mi NE 3.5 mph - N/A   Overcast
8:53 AM 35.1 °F - 33.1 °F 92% 29.62 in 10.0 mi Calm Calm - N/A   Overcast
9:53 AM 37.0 °F 34.5 °F 33.1 °F 86% 29.58 in 10.0 mi NNW 3.5 mph - N/A   Overcast
10:53 AM 37.9 °F 35.5 °F 32.0 °F 79% 29.52 in 10.0 mi Variable 3.5 mph - N/A   Overcast
11:53 AM 39.9 °F 36.7 °F 30.0 °F 68% 29.49 in 10.0 mi Variable 4.6 mph - N/A   Overcast
12:53 PM 39.0 °F 35.7 °F 30.9 °F 73% 29.47 in 10.0 mi Variable 4.6 mph - N/A   Overcast
1:53 PM 39.0 °F 35.7 °F 30.9 °F 73% 29.46 in 10.0 mi Variable 4.6 mph - N/A   Overcast
2:53 PM 37.9 °F 33.5 °F 30.9 °F 76% 29.44 in 10.0 mi Variable 5.8 mph - N/A   Overcast
3:53 PM 37.9 °F 35.5 °F 32.0 °F 79% 29.45 in 10.0 mi Variable 3.5 mph - N/A   Overcast
4:53 PM 37.0 °F 34.5 °F 32.0 °F 82% 29.49 in 7.0 mi SW 3.5 mph - 0.00 in Rain Light Rain
5:00 PM 37.4 °F 33.8 °F 32.0 °F 81% 29.49 in 5.0 mi SW 4.6 mph - 0.01 in Rain Light Rain
5:29 PM 35.6 °F 29.2 °F 32.0 °F 87% 29.51 in 6.0 mi SSW 8.1 mph - 0.04 in Rain Light Rain
5:53 PM 34.0 °F 28.0 °F 32.0 °F 92% 29.52 in 9.0 mi SW 6.9 mph - 0.05 in   Overcast
6:42 PM 37.4 °F 29.8 °F 33.8 °F 87% 29.53 in 10.0 mi South 11.5 mph 21.9 mph 0.00 in   Overcast
6:53 PM 37.9 °F 29.2 °F 34.0 °F 86% 29.53 in 10.0 mi SSW 15.0 mph 23.0 mph 0.00 in   Overcast
7:00 PM 37.4 °F 29.8 °F 33.8 °F 87% 29.53 in 10.0 mi South 11.5 mph 23.0 mph N/A   Overcast
7:53 PM 39.0 °F 26.8 °F 33.1 °F 79% 29.53 in 10.0 mi SSW 32.2 mph 41.4 mph N/A   Overcast
8:53 PM 37.9 °F 25.7 °F 33.1 °F 83% 29.56 in 9.0 mi SSW 29.9 mph 47.2 mph 0.00 in   Overcast
9:53 PM 39.0 °F 26.8 °F 33.1 °F 79% 29.61 in 10.0 mi SSW 32.2 mph 43.7 mph 0.00 in   Overcast
10:53 PM 39.0 °F 27.0 °F 30.9 °F 73% 29.67 in 10.0 mi SSW 31.1 mph 40.3 mph N/A   Overcast
11:53 PM 39.0 °F 27.8 °F 30.9 °F 73% 29.72 in 10.0 mi SSW 26.5 mph 35.7 mph N/A   Mostly Cloudy